Home > Weather > Winterthur > Past weeks

Flag for Switzerland Past Weather in Winterthur, Switzerland — Yesterday and Last 2 Weeks

Now
59 °F

Scattered showers. Broken clouds.


Feels Like: 57 °F
Forecast: 54 / 65 °F
Wind: 9 mph from Southwest

Location: Zurich-Kloten

Current Time: May 29, 2016 at 7:33:55 PM

Latest Report: May 29, 2016 at 6:50 PM


Visibility: N/A

Pressure: 29.74 "Hg

Humidity: 88%

Dew Point: 55 °F

Location of WinterthurLocation

Past Weather in Winterthur — Graph

°F

Winterthur Temperature Yesterday

Maximum temperature yesterday: 73 °F (at 5:50 PM)
Minimum temperature yesterday: 59 °F (at 1:20 AM)
Average temperature yesterday: 65 °F

High & Low Weather Summary for the Past Weeks

 TemperatureHumidityPressure
High81 °F (May 22, 3:20 PM)100% (May 17, 4:20 AM)30.21 "Hg (May 17, 4:20 AM)
Low39 °F (May 16, 3:50 AM)31% (May 21, 3:50 PM)29.74 "Hg (May 29, 9:20 AM)
Average56 °F73%30.00 "Hg
* Reported May 14 6:20 PM — May 29 6:20 PM, Winterthur, Weather by CustomWeather, © 2016

Note: Actual official high and low records may vary slightly from our data, if they occured in-between our weather recording intervals... More about our weather records

Advertising

Winterthur Weather History for the Previous 24 Hours

Scroll right to see more
 ConditionsComfort  
Time TempWeatherWind HumidityBarometerVisibility
6:20 PM
Sun, May 29
61 °FScattered showers. Broken clouds.8 mph88%29.74 "HgN/A
5:50 PM61 °FBroken clouds.9 mph88%29.74 "HgN/A
5:20 PM61 °FBroken clouds.8 mph88%29.74 "HgN/A
4:50 PM61 °FBroken clouds.7 mph88%29.74 "HgN/A
4:20 PM61 °FSprinkles. Partly sunny.7 mph88%29.74 "HgN/A
3:50 PM59 °FSprinkles. Broken clouds.10 mph94%29.74 "HgN/A
3:20 PM61 °FSprinkles. Broken clouds.6 mph94%29.74 "HgN/A
2:50 PM61 °FSprinkles. Broken clouds.3 mph88%29.74 "Hg6 mi
2:20 PM61 °FRain showers. Partly sunny.3 mph88%29.74 "Hg5 mi
1:50 PM59 °FSprinkles. Broken clouds.3 mph94%29.74 "Hg5 mi
1:20 PM59 °FRain showers. Broken clouds.6 mph88%29.74 "Hg5 mi
12:50 PM61 °FSprinkles. Partly sunny.5 mph83%29.74 "Hg5 mi
12:20 PM63 °FSprinkles. Broken clouds.5 mph83%29.74 "HgN/A
11:50 AM63 °FScattered showers. Broken clouds.5 mph83%29.74 "HgN/A
11:20 AM63 °FScattered showers. Broken clouds.6 mph83%29.74 "HgN/A
10:50 AM63 °FScattered showers. Broken clouds.6 mph83%29.74 "HgN/A
10:20 AM63 °FScattered showers. Partly sunny.2 mph88%29.74 "HgN/A
9:50 AM61 °FPartly sunny.No wind94%29.74 "HgN/A
9:20 AM59 °FScattered showers. Partly sunny.5 mph94%29.74 "HgN/A
8:50 AM61 °FSprinkles. Partly sunny.6 mph88%29.77 "HgN/A
8:20 AM61 °FSprinkles. Partly sunny.6 mph94%29.77 "HgN/A
7:50 AM59 °FRain showers. Partly sunny.6 mph100%29.77 "Hg3 mi
7:20 AM59 °FScattered showers. Partly sunny.5 mph94%29.77 "HgN/A
6:50 AM59 °FScattered showers. Partly sunny.2 mph94%29.77 "HgN/A
6:20 AM59 °FScattered showers. Passing clouds.No wind94%29.77 "HgN/A
5:50 AM57 °FPassing clouds.2 mph100%29.77 "Hg6 mi
5:20 AM57 °FPassing clouds.2 mph100%29.77 "Hg6 mi
4:50 AM57 °FPassing clouds.5 mph100%29.77 "HgN/A
4:20 AM59 °FScattered showers. Passing clouds.1 mph94%29.77 "HgN/A
3:50 AM59 °FScattered showers. Passing clouds.3 mph94%29.80 "HgN/A
3:20 AM59 °FThundershowers. Passing clouds.10 mph94%29.80 "HgN/A
2:50 AM59 °FThundershowers. Passing clouds.7 mph94%29.80 "HgN/A
2:20 AM61 °FThunderstorms. Partly cloudy.5 mph94%29.80 "Hg5 mi
1:50 AM61 °FScattered showers. Partly cloudy.2 mph94%29.80 "HgN/A
1:20 AM61 °FScattered showers. Passing clouds.8 mph94%29.80 "HgN/A
12:50 AM63 °FPassing clouds.7 mph88%29.80 "HgN/A
12:20 AM63 °FSprinkles. Passing clouds.7 mph94%29.80 "HgN/A
11:50 PM
Sat, May 28
63 °FRain showers. Passing clouds.8 mph94%29.80 "HgN/A
11:20 PM63 °FScattered showers. Partly cloudy.5 mph88%29.77 "HgN/A
10:50 PM64 °FPassing clouds.5 mph83%29.77 "HgN/A
10:20 PM64 °FScattered showers. Passing clouds.6 mph88%29.80 "HgN/A
9:50 PM66 °FRain showers. Partly sunny.6 mph78%29.80 "HgN/A
9:20 PM66 °FThundershowers. Broken clouds.9 mph78%29.80 "HgN/A
8:50 PM68 °FThunderstorms. Partly sunny.9 mph69%29.80 "HgN/A
8:20 PM70 °FScattered showers. Scattered clouds.6 mph60%29.80 "HgN/A
7:50 PM72 °FScattered showers. Scattered clouds.6 mph61%29.80 "HgN/A
7:20 PM72 °FScattered clouds.7 mph61%29.83 "HgN/A
Weather by CustomWeather, © 2016

See weather overviewHow to use our weather pages